Orangeburg, SC

4:44 PM EST on December 18, 2017 (GMT -0500)
Orangeburg Municipal

Weather History for KOGB - September, 2012

Change the Weather History Date:

Tuesday, September 18, 2012

  Actual Average Record
Temperature  
Mean Temperature 77 °F 74 °F  
Max Temperature 82 °F 85 °F 99 °F (1980)
Min Temperature 71 °F 64 °F 52 °F (2001)
Degree Days  
Heating Degree Days 0 0  
Month to date heating degree days 0 0  
Since 1 July heating degree days 0 0  
Cooling Degree Days 12 10  
Month to date cooling degree days 222 207  
Year to date cooling degree days 2127 1900  
Growing Degree Days 26 (Base 50)    
Moisture  
Dew Point 71 °F    
Average Humidity 85    
Maximum Humidity 93    
Minimum Humidity 69    
Precipitation  
Precipitation 0.02 in 0.12 in 1.66 in (1998)
Month to date precipitation 3.24 2.30  
Year to date precipitation 34.43 35.61  
Sea Level Pressure  
Sea Level Pressure 29.81 in    
Wind  
Wind Speed 8 mph (SSW)    
Max Wind Speed 21 mph    
Max Gust Speed 28 mph    
Visibility 10 miles    
Events Rain    
T = Trace of Precipitation, MM = Missing Value Source: NWS Daily Summary

Daily Weather History Graph

Daily Weather History Graph

Search for Another Location

Airport or City:

Trip Planner

Search our weather history database for the weather conditions in past years. The results will help you decide how hot, cold, wet, or windy it might be!

Date:

Astronomy

Sep. 18, 2012 Rise Set
Actual Time 7:09 AM EDT 7:25 PM EDT
Civil Twilight 6:44 AM EDT 7:49 PM EDT
Nautical Twilight 6:15 AM EDT 8:18 PM EDT
Astronomical Twilight 5:45 AM EDT 8:48 PM EDT
Moon 9:55 AM EDT 9:00 PM EDT
Length of Visible Light 13h 05m
Length of Day
12h 15m
Waxing Crescent, 9% of the Moon is Illuminated
Sep 18
Waxing Crescent
Sep 22
First Quarter
Sep 29
Full
Oct 8
Last Quarter
Oct 15
New

Hourly Weather History & Observations

Time (EDT) Temp. Heat Index Dew Point Humidity Pressure Visibility Wind Dir Wind Speed Gust Speed Precip Events Conditions
12:53 AM 73.9 °F - 70.0 °F 87% 29.91 in 10.0 mi SSE 5.8 mph - N/A   Partly Cloudy
1:53 AM 75.0 °F - 71.1 °F 87% 29.90 in 10.0 mi South 5.8 mph - N/A   Overcast
2:53 AM 75.9 °F - 72.0 °F 87% 29.87 in 10.0 mi SSE 8.1 mph - N/A   Overcast
3:53 AM 75.9 °F - 72.0 °F 87% 29.83 in 10.0 mi SSE 8.1 mph - N/A   Clear
4:53 AM 75.9 °F - 72.0 °F 87% 29.83 in 10.0 mi South 5.8 mph - N/A   Mostly Cloudy
5:53 AM 75.9 °F - 72.0 °F 87% 29.83 in 10.0 mi South 5.8 mph - N/A   Overcast
6:48 AM 75.2 °F - 71.6 °F 89% 29.82 in 10.0 mi South 5.8 mph - N/A   Mostly Cloudy
6:53 AM 75.9 °F - 72.0 °F 87% 29.81 in 10.0 mi South 5.8 mph - N/A   Mostly Cloudy
7:53 AM 75.9 °F - 72.0 °F 87% 29.82 in 10.0 mi South 6.9 mph - N/A   Overcast
8:53 AM 78.1 °F - 73.0 °F 84% 29.82 in 10.0 mi South 10.4 mph - N/A   Overcast
9:09 AM 78.8 °F - 73.4 °F 83% 29.82 in 10.0 mi SSW 9.2 mph 19.6 mph N/A   Overcast
9:53 AM 80.1 °F 83.8 °F 72.0 °F 76% 29.81 in 10.0 mi SSW 11.5 mph 20.7 mph N/A   Overcast
10:53 AM 82.0 °F 86.7 °F 72.0 °F 71% 29.81 in 10.0 mi SW 16.1 mph 25.3 mph 0.00 in   Mostly Cloudy
11:53 AM 81.0 °F 84.9 °F 71.1 °F 72% 29.81 in 10.0 mi SSW 15.0 mph 21.9 mph N/A   Overcast
12:25 PM 80.6 °F 84.6 °F 71.6 °F 74% 29.82 in 10.0 mi SW 11.5 mph 20.7 mph 0.00 in Rain Light Rain
12:53 PM 80.1 °F 83.8 °F 72.0 °F 76% 29.80 in 10.0 mi SSW 11.5 mph - 0.00 in   Mostly Cloudy
1:53 PM 75.0 °F - 70.0 °F 84% 29.78 in 10.0 mi SSW 6.9 mph - 0.02 in Rain Light Rain
2:53 PM 75.9 °F - 69.1 °F 79% 29.76 in 10.0 mi SW 12.7 mph - 0.00 in   Mostly Cloudy
3:53 PM 75.9 °F - 66.9 °F 74% 29.76 in 10.0 mi SW 6.9 mph - N/A   Clear
4:53 PM 75.9 °F - 69.1 °F 79% 29.77 in 10.0 mi SW 8.1 mph - N/A   Clear
5:53 PM 75.9 °F - 69.1 °F 79% 29.78 in 10.0 mi SW 10.4 mph - N/A   Mostly Cloudy
6:07 PM 75.2 °F - 69.8 °F 83% 29.78 in 10.0 mi SSW 4.6 mph - N/A   Scattered Clouds
6:53 PM 75.0 °F - 70.0 °F 84% 29.77 in 10.0 mi South 6.9 mph - N/A   Clear
7:53 PM 73.9 °F - 70.0 °F 87% 29.78 in 10.0 mi SSW 3.5 mph - N/A   Scattered Clouds
8:00 PM 73.4 °F - 69.8 °F 88% 29.78 in 10.0 mi South 3.5 mph - N/A   Mostly Cloudy
8:27 PM 73.4 °F - 69.8 °F 88% 29.79 in 10.0 mi South 4.6 mph - N/A   Scattered Clouds
8:53 PM 73.0 °F - 70.0 °F 90% 29.79 in 10.0 mi South 4.6 mph - N/A   Clear
9:53 PM 72.0 °F - 69.1 °F 91% 29.80 in 10.0 mi South 3.5 mph - N/A   Mostly Cloudy
10:24 PM 71.6 °F - 69.8 °F 94% 29.82 in 10.0 mi Calm Calm - N/A   Scattered Clouds
10:53 PM 71.1 °F - 69.1 °F 93% 29.82 in 10.0 mi South 4.6 mph - N/A   Clear
11:16 PM 71.6 °F - 69.8 °F 94% 29.84 in 10.0 mi South 4.6 mph - N/A   Mostly Cloudy
11:27 PM 71.6 °F - 69.8 °F 94% 29.85 in 10.0 mi SSW 4.6 mph - N/A   Scattered Clouds
11:53 PM 71.1 °F - 69.1 °F 93% 29.85 in 10.0 mi SSW 4.6 mph - N/A   Mostly Cloudy